{"data":{"norad_id":60306,"epoch":"2026-05-25T03:32:59.496576Z","epoch_age_seconds":69092,"freshness":"FRESH","line1":"1 60306U 24133F   26145.14791084  .00000254  00000+0  69563-5 0  9994","line2":"2 60306  53.1584 129.2439 0000940  82.3058 277.8067 15.69711652105749","mean_motion":15.69711652,"eccentricity":9.4e-5,"inclination_deg":53.1584,"raan_deg":129.2439,"arg_perigee_deg":82.3058,"mean_anomaly_deg":277.8067,"bstar":6.9563e-6,"rev_number":10574,"period_min":91.736593670899,"perigee_km":359.08866428411,"apogee_km":360.35538178044,"semimajor_km":6737.8590230323,"source":"CELESTRAK","updated_at":"2026-05-25T13:38:19.228865Z"}}